This is the latest recevied weather packets stored in our database for station/object KT2UU-13. If no packets are shown the sender has not sent any weather packets the latest 10 day(s).
| Time | Temp. | Humidity | Pressure | Rain* | Wind** | Luminosity | Snow |
|---|---|---|---|---|---|---|---|
| 1777661035 | 19.44° C | 54% | 1015.3 hPa | 0 mm | - | - | - |
| 1777660730 | 18.89° C | 57% | 1015.2 hPa | 0 mm | - | - | - |
| 1777660428 | 18.89° C | 58% | 1015.4 hPa | 0 mm | - | - | - |
| 1777660124 | 19.44° C | 57% | 1015.5 hPa | 0 mm | - | - | - |
| 1777659821 | 19.44° C | 57% | 1015.5 hPa | 0 mm | - | - | - |
| 1777659518 | 19.44° C | 58% | 1015.6 hPa | 0 mm | - | - | - |
| 1777659215 | 19.44° C | 57% | 1015.6 hPa | 0 mm | - | - | - |
| 1777658912 | 18.89° C | 59% | 1015.6 hPa | 0 mm | - | - | - |
| 1777658608 | 18.33° C | 62% | 1015.7 hPa | 0 mm | - | - | - |
| 1777658306 | 18.33° C | 65% | 1015.6 hPa | 0 mm | - | - | - |
| 1777658002 | 17.78° C | 63% | 1015.7 hPa | 0 mm | - | - | - |
| 1777657699 | 17.78° C | 59% | 1015.6 hPa | 0 mm | - | - | - |
| 1777657396 | 17.78° C | 64% | 1015.6 hPa | 0 mm | - | - | - |
| 1777657095 | 17.78° C | 62% | 1015.7 hPa | 0 mm | - | - | - |
| 1777656791 | 18.33° C | 60% | 1015.6 hPa | 0 mm | - | - | - |
| 1777656487 | 18.33° C | 61% | 1015.7 hPa | 0 mm | - | - | - |
| 1777656182 | 18.33° C | 63% | 1015.7 hPa | 0 mm | - | - | - |
| 1777655878 | 17.78° C | 63% | 1015.7 hPa | 0 mm | - | - | - |
| 1777655575 | 18.33° C | 62% | 1015.9 hPa | 0 mm | - | - | - |
| 1777655272 | 18.33° C | 64% | 1015.9 hPa | 0 mm | - | - | - |
| 1777654969 | 18.33° C | 61% | 1015.8 hPa | 0 mm | - | - | - |
| 1777654666 | 18.89° C | 61% | 1015.9 hPa | 0 mm | - | - | - |
| 1777654364 | 18.89° C | 60% | 1015.9 hPa | 0 mm | - | - | - |
| 1777654062 | 18.33° C | 64% | 1016.1 hPa | 0 mm | - | - | - |
| 1777653758 | 17.78° C | 63% | 1015.8 hPa | 0 mm | - | - | - |
* Rain latest hour (hover to see other rain measurements)
** Current wind speed in m/s (hover to see current wind gust speed)